Location: *
(49.3298°N, 8.5500°E)
Time: 13:11:24
(UTC+00:00)

Daily predictions for brighter satellites

Satellite Brightness Start Highest point End
(mag) Time Altitude Azimuth Time Altitude Azimuth Time Altitude Azimuth
Cosmos 2369 4.2 20:04:48 10° NNW 20:10:24 51° NE 20:15:58 10° SE
Cosmos 2344 4.4 20:06:56 10° NW 20:15:33 76° NE 20:27:32 10° SE
Resurs 01 Rocket 2.5 20:13:08 10° S 20:17:28 50° W 20:21:50 10° NNW
COSMOS 2406 3.7 20:15:32 10° S 20:20:53 41° ESE 20:26:15 10° NE
Cosmos 2184 Rocket 4.0 20:17:15 10° N 20:23:28 85° E 20:29:42 10° S
H-2A R/B 2.9 20:21:09 10° N 20:25:32 58° WNW 20:29:57 10° SSW
Cosmos 1833 Rocket 2.7 20:20:51 10° SSW 20:26:25 73° ESE 20:32:03 10° NNE
Cosmos 1867 3.8 20:23:42 10° NW 20:29:10 65° NE 20:34:34 10° SE
Cosmos 1536 Rocket 3.8 20:27:52 10° SSW 20:32:12 74° WNW 20:36:35 10° N
Cosmos 1703 3.2 20:29:29 10° S 20:33:19 88° W 20:37:12 10° N
CARTOSAT-1 3.9 20:30:24 10° S 20:34:41 66° WSW 20:39:00 10° NNW
Cosmos 1825 4.4 20:34:26 10° E 20:35:21 11° E 20:36:16 10° ENE
Cosmos 1606 Rocket 3.7 20:31:11 10° N 20:35:30 62° ENE 20:39:49 10° SSE
USA 245 3.1 20:32:41 10° S 20:36:32 77° WSW 20:39:38 10° NNW
Cosmos 2322 Rocket 4.1 20:33:57 10° N 20:38:16 22° NE 20:42:35 10° E
Ariane Rocket 3.8 20:33:51 10° S 20:38:47 50° W 20:43:46 10° NNW
CZ-4B R/B 2.7 20:42:33 10° N 20:45:13 34° WNW 20:47:53 10° SW
GP-B 4.5 20:42:17 10° NNE 20:45:55 24° E 20:49:01 12° SE
USA 234 4.2 20:40:35 10° E 20:46:49 48° N 20:53:03 10° WNW
ARIANE 5 R/B 3.2 20:44:14 12° SE 20:48:07 46° ENE 20:52:21 10° N
Terra 2.0 20:44:04 11° SSE 20:48:32 64° ENE 20:53:16 10° N
SPOT 3 Rocket 4.0 20:45:14 10° S 20:50:22 61° WSW 20:55:34 10° NNW
SPOT 5 2.6 20:46:56 10° SSE 20:51:17 85° WSW 20:55:38 10° NNW
RESURS DK-1 4.3 20:49:03 10° NW 20:52:23 24° WSW 20:55:41 10° SSW
Cosmos 2278 4.1 20:46:44 10° NNW 20:52:23 56° NE 20:57:25 13° SE
USA 276 1.9 20:50:46 10° W 20:53:48 87° N 20:56:51 10° E
Cosmos 2341 Rocket 4.3 20:47:40 10° N 20:53:52 54° ENE 20:59:17 13° SSE
FALCON 9 DEB 3.0 20:51:49 10° WNW 20:55:06 84° NNE 20:58:00 13° ESE
Cosmos 1726 Rocket 3.5 20:53:04 10° N 20:57:25 80° E 21:01:15 13° SSE
Cosmos 1331 Rocket 4.4 20:58:14 10° SSW 21:03:31 67° WNW 21:08:49 10° NNE
Meteor 1-11 4.4 20:58:41 11° S 21:03:57 52° E 21:09:21 10° NNE
Cosmos 2082 Rocket 2.3 20:58:59 10° SSW 21:04:36 62° ESE 21:10:14 10° NE
ASTEX 1 4.1 21:03:26 10° NNE 21:08:09 39° E 21:11:39 16° SSE
Helios 1A Rocket 3.3 21:04:55 12° S 21:08:40 61° WSW 21:12:46 10° NNW
Spot 2 Rocket 3.9 21:04:03 10° S 21:09:05 62° WSW 21:14:10 10° NNW
Cosmos 1328 3.9 21:05:37 10° SSW 21:09:37 81° WNW 21:13:37 10° N
Cosmos 2084 Rocket 4.4 21:07:27 10° WNW 21:10:59 33° WSW 21:13:53 14° S
Cosmos 2360 Rocket 3.9 21:08:21 10° NNW 21:12:57 24° NE 21:17:31 10° E
Nadezhda 1 Rocket 4.2 21:08:58 10° SSW 21:15:01 72° W 21:21:07 10° N
Cosmos 2181 Rocket 4.3 21:17:08 15° SSE 21:22:00 51° E 21:28:02 10° NNE
ERS-1 Rocket 3.7 21:22:07 11° S 21:26:44 49° W 21:31:38 10° NNW
Cosmos 1892 2.6 21:26:27 18° S 21:29:06 72° E 21:32:53 10° NNE
Cosmos 1302 Rocket 4.2 21:30:25 10° SSW 21:35:35 71° WNW 21:40:48 10° NNE
Cosmos 1892 Rocket 4.1 21:38:06 10° SSW 21:42:24 57° WNW 21:46:44 10° N
Cosmos 968 Rocket 4.4 21:37:43 10° NW 21:42:36 42° WSW 21:46:30 16° S
Cosmos 1503 Rocket 4.3 21:38:48 10° NNW 21:44:05 62° ENE 21:47:32 21° SE
Cosmos 1980 Rocket 3.1 21:40:45 10° NW 21:46:02 40° WSW 21:50:07 16° S
ALOS 2 4.2 21:44:13 14° ESE 21:46:59 25° ENE 21:50:34 10° N
Cosmos 2219 Rocket 4.2 21:44:18 10° N 21:48:39 22° NE 21:53:00 10° E
SL-16 R/B 2.4 21:43:24 10° NNW 21:49:06 69° ENE 21:52:57 21° SE
Cosmos 2058 Rocket 3.7 21:45:55 10° NNW 21:50:13 51° W 21:53:20 18° SSW
Cosmos 1408 3.3 21:48:44 14° SSW 21:51:26 47° WNW 21:54:48 10° N
Cosmos 1626 Rocket 3.6 21:50:06 24° S 21:52:35 66° E 21:56:56 10° NNE
SL-8 Rocket 4.1 21:47:12 10° NNW 21:53:24 72° W 21:58:01 19° S
USA 267 3.7 21:47:50 10° ENE 21:53:53 39° SE 21:59:31 12° SSW
ATLAS 5 CENTAUR R/B 1.1 21:50:59 10° SW 21:54:42 79° SE 21:58:57 10° NE
SJ 16-02 1.8 21:56:49 10° NNW 22:01:10 53° ENE 22:03:35 24° SE
In-Cosmos 22 Rocket 4.2 21:59:05 16° SSW 22:03:37 79° WNW 22:09:03 10° N
SL-4 R/B 2.9 22:04:44 24° ESE 22:04:44 24° ESE 22:06:46 10° E
Cosmos 1825 2.3 22:08:00 24° SSW 22:10:06 68° W 22:13:52 10° N
Cosmos 2221 4.5 22:09:44 10° NNE 22:12:59 20° ENE 22:15:26 13° ESE
Cosmos 2366 rocket 4.4 22:07:30 10° NNW 22:13:46 62° W 22:18:15 20° SSW
Cosmos 1869 3.9 22:12:44 10° NNW 22:16:31 49° W 22:18:25 26° SSW
Cosmos 2322 Rocket 2.2 22:17:26 10° NNW 22:23:09 87° ENE 22:26:28 26° SSE
GP-B 4.2 22:19:12 10° NNW 22:23:21 39° W 22:26:27 16° SW
Terra 4.0 22:23:29 10° SW 22:26:44 18° W 22:29:59 10° NW
SAR-Lupe-4 4.5 22:23:58 10° N 22:27:25 45° WNW 22:29:35 20° SW
USA 276 3.3 22:26:38 10° W 22:28:42 28° SW 22:28:42 28° SW
USA 234 3.4 22:22:54 10° ESE 22:29:27 77° NNE 22:36:01 10° NW
Cosmos 1934 Rocket 4.4 22:25:09 10° N 22:31:06 51° ENE 22:34:46 23° SE
BREEZE-M DEB (TANK) 3.7 22:33:44 10° W 22:37:02 79° SSW 22:50:01 10° ESE
Cosmos 1633 2.9 22:39:01 32° SW 22:40:20 56° WNW 22:43:45 10° N
Cosmos 2333 Rocket 2.7 22:38:23 10° NNW 22:44:06 56° NE 22:48:05 20° SE
Cosmos 1758 Rocket 3.6 22:42:24 30° SSW 22:44:31 73° W 22:48:57 10° N
Cosmos 1238 4.3 22:44:13 52° S 22:44:54 78° E 22:48:35 10° NNE
Cosmos 2082 Rocket 4.1 22:44:09 10° WSW 22:49:06 29° NW 22:54:04 10° NNE
COSMOS 2487 4.2 22:52:54 16° E 22:52:54 16° E 22:54:35 10° ENE
Cosmos 1606 2.9 22:49:19 10° NNW 22:53:09 62° W 22:54:21 39° SSW
Cosmos-2242 3.5 22:49:23 10° NNW 22:53:29 48° W 22:55:10 30° SSW
Cosmos 1812 Rocket 4.5 22:50:01 10° NNW 22:54:11 39° W 22:56:09 25° SW
Cosmos 2360 Rocket 2.2 22:51:54 10° NNW 22:57:37 80° WSW 23:00:32 30° SSE
ADEOS Rocket 3.6 22:53:14 26° SSE 22:57:54 83° WSW 23:05:46 10° NNW
ISS -1.8 23:00:49 18° E 23:00:49 18° E 23:01:59 10° E
Cosmos 1340 Rocket 2.8 22:58:42 42° SSE 22:59:48 64° E 23:03:46 10° NNE
Gbstr 26 Del rocket 3.1 22:59:00 28° SW 23:01:05 57° SSE 23:06:05 10° ENE
Cosmos 2333 4.3 23:01:26 10° NNW 23:07:15 80° ENE 23:10:39 26° SE
BREEZE-M DEB (TANK) 3.4 23:12:24 34° SE 23:12:24 34° SE 23:16:33 10° ENE
SL-27 R/B 3.2 23:13:18 34° ESE 23:13:21 34° ESE 23:16:21 10° NE
Meteor 2-11 Rocket 4.4 23:07:59 10° N 23:14:09 88° E 23:17:23 30° S
NOSS 3-2 (A) 4.4 23:13:40 23° SE 23:15:12 26° ESE 23:20:10 10° ENE
Cosmos 44 3.0 23:14:09 36° SSW 23:15:55 68° SE 23:20:21 10° NE
Cosmos 972 Rocket 4.1 23:10:42 10° NNW 23:15:56 77° WSW 23:18:41 31° S
Cosmos 1833 4.1 23:14:26 30° SSW 23:17:14 72° ESE 23:22:50 10° NNE
Cosmos 1782 3.9 23:17:00 10° N 23:20:42 35° ENE 23:22:20 25° ESE
ERS-2 2.0 23:18:35 10° NNE 23:22:11 71° ESE 23:22:56 51° SSE
ALOS 2 3.3 23:21:37 30° SW 23:23:07 41° W 23:27:18 10° NNW
Cosmos 2237 Rocket 4.0 23:18:55 10° NNW 23:23:46 28° NE 23:28:34 10° ESE
CENTAUR R/B 3.4 23:22:31 24° SE 23:24:35 30° ESE 23:30:21 10° NE
Cosmos 1605 Rocket 4.1 23:18:23 10° N 23:24:50 79° E 23:28:27 28° SSE
NOSS 8 (A) 4.4 23:29:31 41° WSW 23:30:27 69° NW 23:33:22 10° NE
COSMOS 2428 3.1 23:24:49 10° NNW 23:30:31 63° ENE 23:34:37 19° SE
H-2A R/B 4.2 23:26:44 10° N 23:30:46 46° WNW 23:32:48 25° SW
Cosmos 2297 Rocket 4.3 23:29:19 10° ESE 23:31:45 13° E 23:34:22 10° ENE
Cosmos 2058 3.7 23:29:58 27° SW 23:31:47 43° WNW 23:35:48 10° N
Cosmos 2151 3.9 23:31:03 28° SE 23:32:31 38° E 23:36:30 10° NNE
SL-16 R/B 3.7 23:28:22 10° NW 23:32:40 22° WSW 23:34:48 18° SW
Cosmos 2219 Rocket 2.2 23:27:42 10° NNW 23:33:26 88° ENE 23:36:40 27° SSE
Cosmos 1953 Rocket 3.9 23:33:03 33° SW 23:34:53 60° WNW 23:39:16 10° N
USA 267 3.3 23:30:43 10° ENE 23:37:17 82° NNW 23:43:50 10° WSW
SJ 16-02 3.1 23:36:11 10° NW 23:39:20 19° W 23:40:31 17° WSW
ATLAS 5 CENTAUR R/B 3.9 23:36:34 10° WNW 23:39:48 23° NNW 23:43:26 10° NNE
Cosmos 2322 3.6 23:36:52 10° NNW 23:42:35 86° WSW 23:45:45 28° SSE
SL-4 R/B 1.7 23:40:05 16° WSW 23:42:48 81° NNW 23:46:33 10° ENE
Cosmos 1898 Rocket 3.7 23:38:43 10° NNW 23:43:54 68° ENE 23:47:03 24° SE
Cosmos 1937 Rocket 4.0 23:43:53 10° NNW 23:49:05 56° ENE 23:52:46 19° SE
Cosmos 2221 3.0 23:46:35 10° NNW 23:50:48 49° W 23:52:14 34° SW
COSMOS 2455 3.8 23:45:27 10° NNW 23:51:16 47° NE 23:57:03 10° ESE
PSLV R/B 3.8 23:48:46 10° NNE 23:53:32 78° WNW 23:55:36 34° SSW
